CDT,Max TemperatureF,Mean TemperatureF,Min TemperatureF,Max Dew PointF,MeanDew PointF,Min DewpointF,Max Humidity, Mean Humidity, Min Humidity, Max Sea Level PressureIn, Mean Sea Level PressureIn, Min Sea Level PressureIn, Max VisibilityMiles, Mean VisibilityMiles, Min VisibilityMiles, Max Wind SpeedMPH, Mean Wind SpeedMPH, Max Gust SpeedMPH,PrecipitationIn, CloudCover, Events, WindDirDegrees
2012-9-1,82,68,53,54,50,45,100,57,28,30.15,30.10,30.04,10,10,10,16,4,22,0.00,0,,72
2012-9-2,86,68,51,64,58,50,94,68,43,30.06,29.98,29.91,10,10,10,12,3,16,0.00,0,,107
2012-9-3,82,72,62,70,65,61,94,80,62,29.96,29.93,29.89,10,10,10,8,1,,0.00,1,Rain-Thunderstorm,235
2012-9-4,91,73,55,66,58,46,100,69,24,29.92,29.86,29.78,10,9,0,13,2,23,0.00,2,Fog-Rain-Thunderstorm,205
2012-9-5,80,68,55,61,55,52,94,66,37,29.92,29.82,29.72,10,10,5,22,5,33,0.17,1,Rain-Thunderstorm,290
2012-9-6,78,61,44,54,47,41,100,65,26,29.99,29.94,29.88,10,10,3,8,1,,0.00,0,Rain,280
2012-9-7,68,60,51,57,52,43,88,76,46,29.97,29.92,29.87,10,10,10,16,4,23,0.00,4,Rain-Thunderstorm,346
2012-9-8,73,55,37,54,44,37,100,72,31,29.98,29.92,29.73,10,10,7,17,4,30,0.01,1,Rain,287
2012-9-9,69,55,41,50,45,39,100,74,35,30.17,30.11,29.96,10,10,10,10,3,16,0.00,3,,320
2012-9-10,77,56,35,48,43,36,100,61,29,30.18,30.09,29.98,10,10,10,16,4,23,0.00,0,,193
2012-9-11,87,70,53,54,49,45,72,47,24,30.00,29.95,29.89,10,10,10,22,8,32,0.00,0,,197
2012-9-12,77,64,51,54,47,32,100,55,22,30.28,30.10,29.95,10,10,7,14,6,21,0.15,2,Rain,305
2012-9-13,64,53,42,52,48,41,100,80,45,30.37,30.31,30.27,10,10,5,8,2,,0.00,2,Rain,260
2012-9-14,73,55,37,48,40,32,100,69,22,30.34,30.31,30.28,10,10,10,9,1,18,0.00,0,,330
2012-9-15,78,56,35,46,40,34,100,59,24,30.30,30.20,30.08,10,10,10,13,2,21,0.00,0,,208
2012-9-16,77,62,46,50,44,41,87,50,28,30.07,29.99,29.91,10,10,10,14,4,23,0.00,1,,202
2012-9-17,62,50,37,52,47,37,100,84,55,29.95,29.90,29.86,10,10,1,14,3,21,0.09,3,Rain,308
2012-9-18,57,44,30,41,31,23,100,72,29,30.01,29.98,29.95,10,10,5,17,3,26,0.00,1,,304
2012-9-19,73,52,30,45,37,28,100,55,30,29.98,29.81,29.65,10,10,10,18,5,28,0.00,1,,230
2012-9-20,62,48,35,41,36,28,100,66,29,29.91,29.88,29.84,10,10,10,17,4,28,0.00,0,,268
2012-9-21,60,48,35,45,38,34,100,70,39,29.90,29.84,29.78,10,10,10,15,2,22,0.00,1,Rain,292
2012-9-22,57,45,33,41,35,32,100,75,41,30.21,30.04,29.76,10,10,3,23,7,37,0.04,6,Rain-Thunderstorm,303
2012-9-23,55,40,26,34,29,25,100,73,33,30.29,30.25,30.21,10,10,10,16,3,23,0.00,0,,293
2012-9-24,73,48,23,39,30,23,100,57,22,30.20,29.96,29.77,10,10,10,14,3,28,0.00,0,,226
2012-9-25,71,53,35,43,36,32,100,60,25,29.94,29.83,29.78,10,10,10,9,2,17,0.00,0,,306
2012-9-26,64,46,28,37,33,28,100,69,30,30.20,30.09,29.96,10,10,7,10,1,,0.00,0,,38
2012-9-27,64,46,28,36,32,27,100,69,30,30.31,30.24,30.19,10,10,10,7,1,,0.00,0,,85
2012-9-28,71,50,28,41,35,28,100,67,25,30.25,30.19,30.12,10,10,10,6,0,,0.00,0,,275
2012-9-29,77,54,32,41,36,32,100,62,19,30.13,30.06,30.00,10,10,10,12,1,,0.00,0,,348
2012-9-30,69,50,32,45,37,32,100,67,28,30.04,30.00,29.94,10,10,10,8,1,,0.00,0,,92